COSMOS 2251 DEB, 35834

Orbit data source: Space-Track

COSMOS 2251 DEB, 35834 is space debris in LEO originally from a launch on Wed, 16 Jun 1993 UTC launched from the Plesetsk Missile And Space Complex (PKMTR). The debris from Iridium 33, an American commercial communications satellite, has been tracked extensively since its accidental collision with the defunct Russian satellite Cosmos 2251 in 2009. This event, occurring at high speed in low Earth orbit (LEO), generated thousands of pieces of space debris, significantly increasing the risk of further collisions. The Iridium 33 debris cloud has impacted space traffic management and orbital debris mitigation strategies, making it a subject of ongoing study in space situational awareness.

Loading next visibility...
Identifier
35834, 1993-036ATG
Orbit
LEO
Country
Flag of CISCIS
Related business
Manufacturer
Unknown
Mission
Spacecraft
Bus & Motor
Unknown
Mass
Unknown
Launch date (UTC)
1993-06-16 (33 years ago)
Launch vehicle
Unknown
Launch site
Plesetsk Missile And Space Complex (PKMTR)
Object type
Payload
Rocket body
Debris
Shape & HBR
Unknown shape, 0.1 m
Radar Cross Section
Small (<0.1 m²)

Expand to show TLE details & history
Last TLE update: 2 days ago

TLE from 2 days ago
0 COSMOS 2251 DEB
1 35834U 93036ATG 26208.20445078  .00000539  00000-0  28502-3 0  9999
2 35834  73.9301 261.4831 0110060  13.6459  44.7783 14.13136426694620
Epoch: 2026-07-27T04:54Z
TLE epoch observation values (Epoch: 2026-07-27T04:54:24.547Z)
Latitude
55.84267°
Longitude
-92.03081°
Altitude
801.561 km
Speed
7.487 km/s
True Right ascension
19h 05m 51s
True Declination
55° 41' 01"
Sunlit
Object was in daylight at epoch
Visualization orbit readout
Latitude
Unknown
Longitude
Unknown
Altitude
Unknown
Speed
Unknown
Apparent Right ascension
Unknown
Apparent Declination
Unknown
Sunlit
N/A
Visualization observer readout
Local Sidereal Time
09:33:51
Azimuth
Unknown
Elevation
Unknown
Doppler factor
Unknown
Orbital elements
Apogee altitude
925.829 km
Perigee altitude
766.804 km
Semi-major axis
7,224.454 km
Eccentricity
0.01101
Inclination
73.9301°
RAAN
261.4831°
Arg. of periapsis
13.6459°
True anomaly
45.67536°
Mean anomaly
44.7783°
Eccentric anomaly
45.22595°
Mean motion
3.53456 °/min
Orbital period
101.85 mins
BSTAR
0.00028502
Loading maneuver chart data...
Computing Atmospheric mass density...

Documentation

Showing up to 5 results
|